Location: Goldmont Forest
(38.0233°N, 120.2524°W)
Time: 22:55:14
(UTC+00:00)

DMSP B5D2-2 - Pass Details

Date: 05 August 2024
Orbit: 787 x 802 km, 98.3° (Epoch: 08 September)

Event Time Altitude Azimuth Distance (km) Brightness Sun altitude
Rises 12:06:20 0° 177° (S) 3,277 7.0 -11.6°
Reaches altitude 10° 12:08:42 10° 182° (S) 2,349 6.2 -11.2°
Maximum altitude 12:13:47 55° 260° (W) 945 4.2 -10.4°
Drops below altitude 10° 12:18:53 10° 338° (NNW) 2,357 6.6 -9.5°
Sets 12:21:16 0° 343° (NNW) 3,289 7.4 -9.1°
